This is the latest recevied weather packets stored in our database for station/object 4S6DRJ-13. If no packets are shown the sender has not sent any weather packets the latest 10 day(s).
| Time | Temp. | Humidity | Pressure | Rain* | Wind** | Luminosity | Snow |
|---|---|---|---|---|---|---|---|
| 1787696212 | 26.67° C | 89% | 1009.8 hPa | 0 mm | 1.79 m/s, 227° | 0 W/m² | - |
| 1787696152 | 26.67° C | 89% | 1009.8 hPa | 0 mm | 1.34 m/s, 207° | 0 W/m² | - |
| 1787696091 | 26.67° C | 89% | 1009.9 hPa | 0 mm | 0.89 m/s, 222° | 0 W/m² | - |
| 1787696029 | 26.67° C | 89% | 1009.9 hPa | 0 mm | 0.89 m/s, 170° | 0 W/m² | - |
| 1787695969 | 26.67° C | 89% | 1010 hPa | 0 mm | 2.24 m/s, 205° | 0 W/m² | - |
| 1787695907 | 26.67° C | 89% | 1009.9 hPa | 0 mm | 1.34 m/s, 211° | 0 W/m² | - |
| 1787695846 | 26.67° C | 89% | 1010 hPa | 0 mm | 1.34 m/s, 195° | 0 W/m² | - |
| 1787695785 | 26.67° C | 89% | 1009.8 hPa | 0 mm | 0.45 m/s, 250° | 0 W/m² | - |
| 1787695724 | 26.67° C | 89% | 1009.9 hPa | 0 mm | 0.89 m/s, 251° | 0 W/m² | - |
| 1787695664 | 26.67° C | 89% | 1009.7 hPa | 0 mm | 1.79 m/s, 199° | 0 W/m² | - |
| 1787695602 | 26.67° C | 89% | 1009.8 hPa | 0 mm | 1.34 m/s, 231° | 0 W/m² | - |
| 1787695542 | 26.67° C | 89% | 1009.9 hPa | 0 mm | 1.79 m/s, 230° | 0 W/m² | - |
| 1787695481 | 26.67° C | 89% | 1010 hPa | 0 mm | 1.34 m/s, 207° | 0 W/m² | - |
| 1787695419 | 26.67° C | 89% | 1010 hPa | 0 mm | 1.34 m/s, 229° | 0 W/m² | - |
| 1787695359 | 26.67° C | 90% | 1009.8 hPa | 0 mm | 1.79 m/s, 236° | 0 W/m² | - |
| 1787695297 | 26.67° C | 90% | 1009.8 hPa | 0 mm | 1.79 m/s, 275° | 0 W/m² | - |
| 1787695236 | 26.67° C | 90% | 1009.8 hPa | 0 mm | 1.79 m/s, 225° | 0 W/m² | - |
| 1787695175 | 26.67° C | 90% | 1010.1 hPa | 0 mm | 0.89 m/s, 229° | 0 W/m² | - |
| 1787695115 | 26.67° C | 90% | 1009.8 hPa | 0 mm | 0.45 m/s, 133° | 0 W/m² | - |
| 1787695053 | 26.67° C | 90% | 1010 hPa | 0 mm | 0.89 m/s, 241° | 0 W/m² | - |
| 1787694992 | 26.67° C | 90% | 1009.9 hPa | 0 mm | 0.89 m/s, 204° | 0 W/m² | - |
| 1787694932 | 26.67° C | 90% | 1010.1 hPa | 0 mm | 1.34 m/s, 273° | 0 W/m² | - |
| 1787694870 | 26.67° C | 90% | 1010 hPa | 0 mm | 1.34 m/s, 213° | 0 W/m² | - |
| 1787694809 | 26.67° C | 90% | 1009.8 hPa | 0 mm | 1.34 m/s, 271° | 0 W/m² | - |
| 1787694748 | 26.67° C | 90% | 1009.8 hPa | 0 mm | 1.79 m/s, 200° | 0 W/m² | - |
* Rain latest hour (hover to see other rain measurements)
** Current wind speed in m/s (hover to see current wind gust speed)